GFSFLT1_850_temp_051.txt.gz
Temp
18 17 17 16 15 14 13 13 13 13 13 13 13 12 12 12 12 12 11 11 11 11 11 9 8 8 7 6 6 5 5 4
18 17 17 15 15 14 14 13 12 13 13 13 12 12 12 11 11 11 11 11 10 9 9 8 7 7 6 6 5 5 5 4
18 18 17 15 14 14 14 13 13 12 12 12 11 11 11 11 11 11 12 11 9 9 8 8 7 7 6 6 5 5 4 4
18 18 16 15 14 14 14 13 13 13 12 11 11 10 10 11 11 11 11 10 9 9 8 8 7 6 6 6 5 4 4 4
18 17 17 15 14 14 13 12 12 12 11 11 11 11 11 12 11 10 9 9 8 8 7 7 6 6 5 4 4 4 3 3
17 16 16 15 14 13 12 12 12 12 11 11 11 11 11 10 10 9 9 8 8 7 7 6 5 5 5 4 4 3 3 2
17 17 16 16 15 14 13 12 12 12 12 12 11 11 10 10 9 9 8 8 7 6 6 5 5 5 4 4 4 3 2 1
17 17 16 16 15 13 13 12 12 12 12 11 11 11 10 10 9 9 8 8 7 7 6 6 5 5 5 4 2 2 1 1
17 16 15 15 14 13 13 12 13 12 12 11 11 10 10 9 9 8 8 7 7 6 5 5 5 4 3 2 1 1 0 0
17 15 15 14 13 13 13 13 13 12 11 11 10 10 9 9 9 8 7 6 4 5 5 4 4 3 2 1 1 0 -0 -0
17 16 15 14 14 13 13 13 12 12 11 11 10 9 8 8 7 6 6 4 4 3 4 3 2 1 1 0 -0 -0 -0 -1
17 16 15 15 14 14 13 12 12 11 11 10 10 9 7 7 6 4 4 4 3 3 3 2 1 1 -0 -0 -1 -1 -1 -2
17 16 15 15 14 13 13 12 12 11 10 9 8 7 6 5 3 3 3 3 3 2 2 1 0 -0 -1 -1 -1 -2 -2 -3
17 17 16 15 14 13 12 12 11 10 8 8 7 6 4 2 3 3 3 3 3 2 1 1 -0 -1 -1 -2 -2 -2 -3 -4
17 17 17 15 14 12 11 11 10 9 8 7 5 4 3 4 3 3 3 2 2 2 1 -1 -1 -2 -2 -2 -2 -3 -4 -4
18 17 16 14 13 11 11 10 9 8 7 6 4 4 4 4 2 3 2 2 1 0 -0 -1 -1 -2 -2 -2 -3 -4 -5 -5
17 16 15 13 12 12 11 10 8 7 6 5 4 4 3 1 2 2 2 1 0 -0 -1 -2 -2 -2 -2 -3 -4 -5 -5 -5
16 15 14 13 12 12 10 8 7 6 5 5 4 3 1 2 2 1 2 0 -0 -1 -1 -2 -2 -2 -3 -4 -5 -5 -5 -6
15 15 14 12 11 10 8 7 6 5 5 4 2 2 2 1 1 1 1 -1 -1 -1 -2 -2 -2 -3 -4 -5 -5 -5 -6 -6

GFSFLT1_850_temp_054.txt.gz
Temp
14 14 15 15 14 14 14 13 13 12 13 13 13 13 13 12 12 12 12 12 12 11 11 10 9 9 8 7 7 6 5 5
15 15 15 15 14 15 15 14 13 13 13 13 13 13 13 12 12 11 11 11 11 11 10 10 9 8 7 6 6 6 6 5
15 15 15 15 15 14 15 14 14 13 13 13 13 13 12 11 10 10 10 10 10 10 10 9 8 7 7 7 7 6 5 4
16 16 16 15 14 15 15 14 14 13 13 12 12 11 10 10 10 10 11 10 9 9 8 8 7 7 7 6 6 5 4 4
17 16 16 16 15 15 15 14 13 12 12 11 11 12 11 11 11 11 10 10 9 9 8 7 7 6 6 6 5 4 3 3
17 17 17 16 16 15 14 13 12 11 11 11 11 11 12 11 11 10 9 9 8 8 7 7 6 6 5 5 4 4 4 3
17 17 17 16 15 15 13 12 12 11 11 11 11 12 11 10 10 10 9 8 8 7 7 6 6 5 5 4 4 4 4 3
16 16 16 16 15 14 15 13 12 11 11 11 11 11 11 11 10 10 8 8 7 6 6 6 5 4 4 3 3 3 2 1
17 17 17 16 16 15 14 13 12 11 11 11 11 10 10 10 9 8 7 6 5 5 5 4 3 4 3 3 3 2 1 0
17 17 16 15 15 14 13 13 12 11 11 11 11 10 10 9 8 6 6 5 4 4 4 3 2 3 3 3 2 2 1 -0
17 16 16 15 14 13 13 13 13 12 12 12 11 11 10 9 8 7 5 5 5 4 4 3 3 3 3 2 1 0 -1 -1
17 16 16 15 14 14 14 13 13 12 12 12 11 10 9 7 6 5 4 3 4 2 4 3 3 2 2 1 0 -1 -1 -2
18 17 16 15 15 14 14 13 13 13 12 11 10 8 7 7 6 4 4 2 1 3 3 2 2 2 1 0 -1 -2 -2 -2
17 16 16 15 15 14 13 13 12 11 10 9 9 8 6 5 5 3 2 1 3 3 2 2 2 1 -0 -1 -2 -2 -2 -3
17 16 16 15 14 13 13 13 12 10 9 8 8 7 6 5 4 2 2 2 2 2 2 2 1 -1 -1 -2 -2 -2 -3 -4
17 16 15 14 13 12 12 12 11 10 9 7 6 6 4 3 2 2 2 2 1 1 1 1 -1 -1 -2 -2 -2 -3 -4 -4
16 15 15 14 13 12 11 10 9 8 7 7 6 4 3 2 2 2 1 1 1 1 -0 -1 -1 -1 -2 -2 -3 -3 -5 -5
16 15 14 13 12 11 10 9 7 6 6 5 4 3 3 2 0 -0 0 0 0 -0 -1 -1 -1 -2 -2 -3 -3 -4 -5 -5
14 14 13 12 11 10 8 6 6 5 4 3 3 2 1 -0 0 -0 -0 0 -0 -1 -1 -1 -2 -2 -3 -3 -4 -5 -5 -6

GFSFLT1_850_temp_060.txt.gz
Temp
14 14 13 13 13 13 12 12 12 12 12 12 11 11 11 12 12 11 12 12 11 11 10 10 10 10 9 9 8 8 7 6
15 14 14 14 13 13 13 12 12 12 12 12 12 12 12 12 11 11 11 12 11 10 10 10 9 9 8 8 7 6 5 5
15 15 14 15 14 14 13 13 13 13 13 13 12 12 12 11 11 11 11 11 10 10 9 9 8 8 7 7 6 5 5 5
15 15 15 15 15 15 14 14 13 13 13 12 12 12 11 11 11 11 11 10 9 9 8 8 7 7 6 6 5 5 5 4
17 16 16 15 15 14 14 13 12 12 13 12 12 12 12 12 11 11 10 9 9 8 8 7 6 6 5 5 6 5 4 4
17 17 17 16 15 15 14 13 13 13 12 12 12 12 11 11 11 10 9 9 8 8 7 7 6 6 5 4 3 4 4 3
17 17 16 16 15 15 14 14 13 13 12 12 12 11 10 11 11 10 9 8 8 7 7 6 5 5 4 3 3 3 3 3
17 17 16 16 15 15 15 14 13 12 12 11 12 10 10 10 10 10 9 9 9 8 7 6 6 5 4 2 2 1 3 3
17 18 17 16 16 16 16 14 14 13 11 11 12 10 10 10 11 10 10 9 8 7 6 5 4 4 3 2 2 2 3 2
18 18 17 16 16 17 16 16 15 14 12 13 12 10 11 10 11 10 9 9 9 7 7 5 5 4 3 2 2 2 1 1
17 18 17 17 17 17 16 16 15 14 13 12 11 11 11 11 11 10 9 8 7 6 5 5 4 3 3 2 2 1 1 -0
17 17 17 17 16 16 16 15 15 14 13 13 12 11 11 11 11 9 8 7 6 5 5 5 3 2 2 1 1 0 -0 -1
18 17 17 17 16 16 16 16 15 15 13 13 12 12 11 11 11 9 7 6 4 5 4 3 2 1 1 0 0 -0 -1 -1
18 17 18 18 17 16 15 16 15 14 13 12 12 11 10 10 8 7 6 5 5 3 1 0 1 1 0 0 -1 -1 -1 -2
18 18 17 17 16 15 16 15 15 14 13 11 9 8 8 6 5 5 4 3 1 -0 0 -0 0 0 -0 -0 -1 -1 -2 -2
18 17 16 15 14 15 15 14 13 12 10 9 7 6 5 7 4 3 2 2 1 -1 -1 -1 -1 -0 -0 -1 -1 -2 -3 -3
15 15 14 14 14 13 12 11 10 9 8 7 6 6 5 3 2 2 0 0 -1 1 -0 -1 -1 -0 -1 -1 -2 -2 -3 -3
15 14 13 13 12 11 10 10 9 8 7 6 5 4 3 1 1 0 0 -0 -0 -0 -1 -0 -1 -1 -1 -2 -2 -3 -3 -4
13 13 13 12 11 10 9 8 7 6 5 4 3 2 1 0 -0 -1 0 -0 -1 -1 -1 -1 -1 -1 -1 -2 -3 -3 -4 -4

GFSFLT1_850_temp_063.txt.gz
Temp
14 13 13 13 12 13 12 12 12 12 12 12 12 12 11 12 12 12 12 12 11 11 10 9 9 9 9 9 8 8 8 7
13 14 14 13 13 13 13 13 12 12 12 12 11 12 12 11 12 12 12 11 11 11 10 9 9 9 9 8 8 7 6 6
14 14 14 14 14 13 13 13 13 13 13 13 12 12 12 12 12 11 10 11 11 10 10 9 9 9 8 7 7 6 5 4
14 14 15 15 14 14 14 14 13 12 12 12 12 12 11 11 12 11 11 11 10 10 9 9 8 8 7 7 6 5 4 4
16 15 15 15 15 14 14 13 13 13 12 12 12 12 12 12 12 11 11 11 10 9 9 8 8 8 7 6 5 4 4 3
17 17 16 16 15 15 14 14 13 13 12 12 12 12 12 12 11 11 11 10 10 9 8 8 8 7 6 5 5 3 3 2
18 17 17 17 16 15 15 14 14 14 13 12 12 12 12 11 10 10 10 10 9 9 8 8 7 6 5 5 5 4 3 3
19 18 17 17 17 17 16 15 14 14 13 13 12 12 11 10 10 10 10 9 9 9 9 8 7 6 5 4 5 4 3 3
19 19 19 18 18 17 16 16 15 15 14 13 12 12 11 10 9 9 9 9 10 9 8 7 6 5 4 4 3 3 3 2
17 18 18 18 17 17 17 17 16 15 15 14 12 11 11 10 9 9 9 9 9 8 7 6 4 4 4 5 3 2 2 1
17 16 17 18 17 16 16 16 15 15 14 14 13 12 11 10 9 9 10 9 8 7 6 6 5 4 3 3 3 2 1 1
18 17 17 16 16 16 15 15 15 15 14 14 13 12 11 10 10 9 8 9 8 7 7 5 4 3 2 1 1 1 0 0
19 18 17 17 17 16 15 15 14 14 14 13 12 13 12 11 11 9 8 7 6 6 4 4 2 1 2 1 1 0 -0 -0
18 18 18 17 17 16 15 15 14 15 15 14 13 13 12 10 9 8 7 5 4 3 3 0 0 1 0 0 0 -1 -1 -1
18 17 16 16 16 15 15 15 15 15 14 14 12 10 8 8 7 6 5 4 3 2 2 1 1 -0 -1 -1 -1 -1 -1 -2
16 15 15 15 14 14 14 14 14 13 11 9 8 8 7 6 5 5 3 3 2 2 1 1 0 -1 -1 -1 -1 -1 -1 -2
14 14 13 13 12 12 11 11 10 9 9 8 7 6 5 4 4 3 3 1 0 0 0 -1 -1 -1 -1 -1 -1 -2 -2 -2
13 13 13 12 12 11 10 10 9 8 7 6 5 4 4 3 2 0 -0 -0 0 -0 -1 -1 -1 -1 -1 -1 -1 -2 -2 -3
13 12 12 11 10 9 8 7 6 6 5 4 4 3 2 0 -0 -0 0 -0 -0 -0 -0 -1 -1 -1 -1 -1 -2 -2 -3 -3

GFSFLT1_850_temp_069.txt.gz
Temp
15 14 13 12 10 10 11 10 11 11 11 11 11 11 11 11 11 11 11 11 12 12 10 9 11 9 9 9 9 9 9 9
14 14 13 13 12 11 12 11 11 11 11 12 12 12 12 12 11 11 11 12 12 12 10 10 10 9 9 9 9 9 8 8
14 14 14 13 13 13 13 13 13 12 13 13 13 13 13 13 11 11 11 11 12 12 10 10 10 9 8 8 8 8 8 7
16 15 15 14 14 14 14 14 14 13 14 13 13 12 12 12 12 10 11 12 11 11 10 9 9 9 8 7 8 8 8 7
18 16 16 15 15 15 14 14 15 14 13 13 13 13 13 13 12 10 10 10 11 12 10 10 9 9 8 7 7 7 7 7
19 18 17 16 15 15 14 14 15 15 13 13 13 13 13 13 12 11 10 11 12 11 10 8 8 9 8 7 7 6 7 6
20 20 18 17 16 15 14 14 15 14 14 13 13 13 13 14 12 11 10 10 12 11 10 9 7 8 7 7 6 6 6 6
21 21 20 19 17 15 15 14 15 14 14 13 13 13 13 13 12 11 10 11 12 11 10 9 8 7 7 6 5 5 6 5
22 21 20 20 19 17 15 15 15 15 14 13 13 12 12 12 11 10 11 10 10 11 10 8 7 6 6 5 4 5 5 4
22 22 21 20 19 18 16 15 15 15 14 13 12 12 12 11 11 10 9 9 9 9 9 8 6 5 5 5 5 5 5 3
21 22 21 21 20 19 17 15 16 16 14 13 12 12 11 11 12 12 11 9 9 8 7 7 5 5 4 4 5 5 3 2
21 21 21 20 20 19 17 16 16 16 15 14 12 11 11 11 11 10 9 9 9 8 6 5 5 4 4 4 3 2 2 2
21 20 19 19 18 18 17 16 15 15 15 14 12 11 11 10 10 10 9 9 8 8 6 5 4 4 4 3 2 2 2 1
21 20 19 18 17 17 16 15 15 15 14 13 12 10 10 10 10 10 9 8 7 6 6 5 5 3 2 2 2 2 1 -0
22 20 19 18 17 16 15 14 13 13 13 12 10 10 10 10 9 8 8 7 6 6 5 4 3 2 2 2 2 1 0 0
21 21 19 17 15 13 11 12 12 11 10 10 10 10 9 9 8 8 6 5 5 4 3 2 2 2 2 1 -0 0 -0 0
19 19 18 16 13 12 10 9 10 10 10 9 9 8 8 7 6 5 5 4 3 2 2 2 2 2 1 0 -0 -0 -1 -1
16 16 15 13 11 9 8 8 8 8 8 7 7 7 7 6 5 4 3 3 3 3 2 2 1 0 0 -0 -0 -0 -1 -1
13 13 11 10 9 8 7 6 7 6 6 5 5 5 4 4 4 3 2 2 1 1 1 1 0 0 -0 -1 -1 -1 -1 -2

GFSFLT1_850_temp_072.txt.gz
Temp
11 10 9 10 10 10 10 10 10 10 10 10 11 11 11 11 11 11 11 11 11 11 12 11 10 10 10 10 9 9 9 9
13 13 11 10 10 11 11 10 10 10 10 10 10 11 11 11 12 12 11 11 11 12 11 10 11 10 10 10 9 9 9 9
15 13 12 11 11 11 11 11 10 11 11 11 11 12 12 12 11 11 11 11 11 12 11 10 11 10 9 9 9 9 9 8
15 14 13 12 11 11 12 11 12 13 12 12 12 12 12 12 12 12 12 11 11 11 12 10 11 10 9 9 9 8 8 8
15 14 14 13 13 13 13 13 13 13 13 13 13 13 13 13 13 12 12 11 11 10 11 10 9 10 9 9 10 9 8 8
16 16 14 14 14 14 14 14 14 14 14 14 14 13 13 13 13 12 12 12 11 10 10 10 9 10 9 8 9 9 8 8
19 17 16 15 15 15 14 14 14 15 14 15 13 13 13 13 13 13 13 12 12 12 11 10 10 10 9 8 7 7 7 7
19 19 17 17 16 15 15 15 15 15 15 14 14 13 13 13 13 13 12 12 11 12 12 9 10 9 9 7 7 6 7 6
21 21 19 18 17 16 15 15 14 15 15 14 14 14 13 13 13 13 13 12 12 11 11 10 9 9 7 7 6 6 6 6
23 21 21 19 18 17 16 15 15 15 15 15 14 13 13 13 12 13 13 11 11 10 10 9 8 7 6 6 6 6 5 5
22 23 22 21 20 19 18 17 15 15 15 15 14 13 13 13 12 13 13 11 10 9 9 9 8 7 6 6 5 5 4 4
22 22 22 21 21 19 19 17 16 16 15 15 14 13 13 12 12 13 12 10 9 9 8 8 7 7 6 5 4 4 4 3
21 21 21 21 21 20 19 18 16 16 16 16 15 14 13 11 11 11 10 9 9 8 8 8 7 6 6 5 5 4 3 2
22 21 20 20 20 19 19 17 17 16 16 15 14 13 14 12 10 10 9 8 8 7 7 6 6 6 5 4 3 2 2 2
22 21 20 19 18 18 18 17 16 15 15 15 14 13 12 10 9 9 9 8 7 7 6 6 5 4 3 3 2 2 1 1
22 22 20 19 17 17 16 15 15 15 14 12 12 11 11 9 9 8 8 7 6 5 5 4 4 3 2 2 1 1 0 0
21 21 19 17 16 15 14 13 13 12 12 11 10 10 9 8 8 8 7 5 5 4 4 3 3 2 2 1 0 0 0 0
18 19 17 16 14 14 12 10 10 10 10 10 9 8 8 7 6 5 5 4 4 3 2 2 2 1 1 0 0 0 0 0
17 16 14 13 12 11 10 8 8 8 8 8 8 7 6 5 5 4 4 3 3 2 2 1 1 0 0 -0 -0 -1 -0 -1

GFSFLT1_850_temp_075.txt.gz
Temp
9 9 9 10 9 9 9 9 9 9 8 9 9 9 10 11 11 12 11 11 11 11 12 11 11 11 11 10 10 10 9 10
12 10 10 9 9 9 9 10 10 9 9 8 9 10 10 10 11 11 11 11 12 12 12 11 11 11 11 10 10 10 9 9
12 12 10 10 11 11 11 11 11 11 11 11 11 11 10 11 11 11 11 11 11 12 12 11 11 11 10 10 10 9 9 9
12 12 12 11 11 12 12 11 11 11 11 11 10 10 11 11 11 11 11 11 12 12 11 11 11 10 10 10 10 10 9 9
13 13 13 12 12 12 12 12 11 12 11 11 11 11 11 11 12 12 12 12 11 11 11 11 11 10 10 10 9 10 9 9
13 13 14 13 13 13 12 11 11 12 12 12 12 12 12 12 12 12 11 11 12 11 11 11 10 10 9 9 9 9 9 8
15 14 14 13 13 13 13 11 12 12 13 13 13 12 12 12 12 12 12 12 12 12 11 11 10 9 10 10 10 8 8 7
15 14 13 13 14 14 14 13 12 13 14 14 13 13 13 13 13 13 13 13 13 12 12 12 11 10 9 9 8 7 7 6
17 16 15 15 15 15 14 14 14 14 14 14 14 14 13 13 13 13 13 13 13 14 13 12 11 10 9 9 8 7 6 6
17 17 16 16 16 16 15 14 14 14 14 14 14 14 14 14 13 13 13 13 13 13 12 10 9 9 9 9 8 7 7 6
19 18 18 17 18 18 16 16 16 16 15 14 14 14 14 14 13 13 13 13 13 13 11 10 9 9 8 8 7 7 6 6
22 21 19 19 19 18 17 17 16 15 15 15 14 14 14 14 13 12 12 13 13 12 9 9 9 8 8 8 7 6 6 5
22 22 20 19 18 18 18 17 16 15 15 15 15 15 14 13 12 12 13 12 10 10 9 9 8 8 8 7 6 6 5 4
21 22 21 19 19 19 17 17 16 17 15 15 15 15 14 13 13 12 13 12 10 9 8 8 7 7 6 6 5 4 4 4
21 21 21 21 18 17 17 16 16 15 15 15 15 15 15 14 13 12 11 11 9 9 8 7 7 6 5 5 4 4 3 3
21 21 20 19 19 19 17 17 16 17 17 16 15 15 14 13 11 11 9 9 8 8 7 6 5 5 4 4 3 2 2 1
21 20 19 19 19 19 18 17 16 14 14 14 13 11 10 10 9 9 9 8 7 6 6 5 4 4 3 3 2 1 1 -0
21 19 19 18 18 17 17 16 15 14 12 10 10 10 10 9 8 8 7 6 5 5 4 4 3 2 2 1 1 0 -0 -0
18 18 17 17 16 15 14 13 12 10 10 10 9 8 8 8 7 6 6 5 5 5 3 2 1 1 1 0 -0 -0 -0 -0

GFSFLT1_850_temp_081.txt.gz
Temp
9 9 9 9 10 9 9 9 10 9 9 9 10 10 11 11 11 12 12 12 12 13 12 11 12 12 11 11 11 11 10 10
9 9 8 9 9 9 9 9 9 8 8 8 10 10 10 11 11 11 12 12 12 13 11 11 11 12 12 12 11 10 10 10
10 10 9 9 9 9 8 9 9 8 8 8 9 9 9 10 11 11 12 12 13 11 10 11 12 12 11 11 10 10 10 10
9 9 9 9 9 8 8 9 9 8 8 9 9 9 10 10 11 11 11 11 11 11 11 11 11 11 11 11 10 10 10 10
12 9 10 10 11 10 9 9 9 9 8 9 9 9 9 10 11 11 11 11 11 11 11 11 11 11 11 11 11 11 10 10
13 13 14 14 11 11 11 10 9 9 9 8 9 9 9 10 11 11 11 11 11 12 12 12 11 11 11 11 10 10 10 9
14 15 14 14 13 13 12 12 11 10 9 9 9 9 9 10 10 11 12 13 13 13 13 12 12 11 11 11 11 11 10 9
14 14 14 14 14 13 12 12 12 11 11 11 11 12 12 12 12 12 12 12 13 13 12 12 12 11 11 11 11 11 10 9
16 15 15 15 14 14 13 12 12 12 12 12 12 12 12 12 12 12 12 13 13 13 13 12 12 11 11 11 11 10 10 9
17 17 15 15 14 14 14 13 13 12 12 12 12 11 11 11 12 12 12 12 12 12 12 12 12 12 12 10 10 11 10 9
15 16 16 16 15 14 14 14 13 13 12 12 12 12 11 12 12 12 12 12 11 11 11 12 12 12 11 10 10 10 9 9
17 18 17 17 16 15 14 14 14 13 13 12 12 12 12 12 12 12 12 12 12 13 11 11 10 9 10 10 10 9 9 8
20 19 19 18 17 16 16 16 15 14 14 15 14 12 12 13 13 13 13 13 12 13 11 10 10 9 8 8 9 9 9 8
19 18 18 19 18 17 17 16 16 16 15 14 14 13 13 13 13 13 13 12 12 12 11 10 11 10 9 9 9 8 8 7
20 19 20 20 19 18 18 18 17 16 15 15 14 14 14 14 13 13 12 12 10 12 13 10 11 10 9 8 8 8 7 6
20 20 20 20 19 19 18 18 18 17 16 14 14 13 13 12 12 12 12 11 10 10 10 9 10 9 9 8 7 7 6 5
20 20 20 21 20 20 19 19 17 15 15 14 13 12 12 12 12 10 10 10 10 9 9 9 9 8 8 7 6 5 5 4
22 21 21 21 20 20 19 19 19 16 14 13 13 13 12 12 11 10 10 9 9 9 9 8 8 8 7 5 5 4 4 3
21 21 21 20 19 18 18 18 17 15 14 13 13 11 10 9 9 9 9 9 8 8 8 8 7 6 5 4 4 2 2 1

GFSFLT1_850_temp_084.txt.gz
Temp
9 9 10 10 9 9 10 9 9 9 9 9 9 9 10 10 10 10 11 11 12 12 12 12 12 11 11 11 11 11 11 10
9 9 9 10 9 9 9 9 9 9 9 9 8 9 10 10 10 10 10 11 12 11 11 11 11 12 11 11 11 11 11 10
9 9 8 9 9 9 9 9 9 9 8 8 8 9 10 10 10 10 11 11 11 11 11 11 11 11 10 10 11 11 10 10
9 9 9 8 8 9 8 8 9 8 8 8 8 9 10 10 10 11 10 10 11 11 11 11 12 11 11 11 11 11 11 10
11 12 12 12 9 8 8 8 9 9 8 9 9 10 10 10 10 10 10 11 11 11 11 12 12 11 11 11 11 11 10 10
14 14 15 13 10 9 9 9 9 9 8 9 9 9 10 10 10 10 10 10 11 11 12 12 11 11 11 11 11 11 10 10
15 14 14 14 12 11 10 9 9 9 9 9 9 9 9 10 10 10 11 11 11 11 12 11 11 11 11 11 11 10 10 10
14 15 14 14 13 12 12 10 10 9 9 9 9 10 10 10 10 10 11 11 11 11 11 11 11 11 11 11 11 10 10 10
15 15 14 14 14 13 13 13 12 11 10 10 10 10 9 10 10 10 10 11 11 11 11 11 12 12 12 12 11 11 10 10
16 16 15 14 14 14 14 14 14 13 13 12 11 11 10 10 10 10 10 11 12 12 12 12 12 12 11 11 11 11 11 9
15 16 16 16 15 15 14 14 14 13 13 13 13 13 12 12 12 12 12 12 12 12 11 11 11 11 11 11 11 10 9 9
18 18 17 16 15 15 15 14 14 13 13 13 13 13 12 12 12 12 12 12 11 11 11 11 10 10 10 10 10 9 10 9
21 18 17 16 16 16 15 14 14 14 14 14 14 14 13 12 12 12 12 12 12 11 11 11 10 10 11 10 9 9 10 10
19 19 20 19 19 17 17 15 15 14 14 14 14 12 12 13 12 12 12 12 12 11 11 10 10 10 10 11 9 9 10 9
20 19 20 20 20 20 19 18 16 15 15 14 14 14 14 14 14 13 13 12 11 11 11 10 10 10 10 10 10 10 9 8
22 21 21 21 20 20 20 20 18 17 15 15 15 14 14 13 13 12 12 12 11 10 10 9 9 9 9 9 9 9 8 8
21 22 22 21 21 21 20 19 18 16 15 14 13 13 13 13 12 11 11 10 10 9 9 9 10 9 9 9 9 8 7 7
21 22 22 21 21 20 19 19 18 16 14 13 12 12 12 12 11 11 10 10 10 9 9 9 8 8 8 8 8 7 7 5
22 21 21 20 20 19 19 18 17 15 14 13 12 12 10 10 10 9 9 9 9 9 9 9 8 8 7 7 7 5 4 3